Cedar Rapids, IA

5:06 PM CDT on June 24, 2018 (GMT -0500)
The Eastern Iowa Airport

Weather History for KCID - October, 2017

Change the Weather History Date:

Friday, October 13, 2017

  Actual Average Record
Temperature  
Mean Temperature 56 °F 52 °F  
Max Temperature 64 °F 63 °F 89 °F (1975)
Min Temperature 48 °F 40 °F 20 °F (1917)
Degree Days  
Heating Degree Days 9 14  
Month to date heating degree days 58 152  
Since 1 July heating degree days 133 309  
Cooling Degree Days 0 0  
Month to date cooling degree days 15 8  
Year to date cooling degree days 744 748  
Growing Degree Days 6 (Base 50)    
Moisture  
Dew Point 54 °F    
Average Humidity 87    
Maximum Humidity 100    
Minimum Humidity 73    
Precipitation  
Precipitation 0.02 in 0.08 in 1.74 in (2014)
Month to date precipitation 2.62 1.17  
Year to date precipitation 23.61 29.63  
Sea Level Pressure  
Sea Level Pressure 30.06 in    
Wind  
Wind Speed 9 mph (East)    
Max Wind Speed 17 mph    
Max Gust Speed 22 mph    
Visibility 8 miles    
Events Rain    
T = Trace of Precipitation, MM = Missing Value Source: NWS Daily Summary

Daily Weather History Graph

Daily Weather History Graph

Search for Another Location

Airport or City:

Astronomy

Oct. 13, 2017 Rise Set
Actual Time 7:17 AM CDT 6:28 PM CDT
Civil Twilight 6:49 AM CDT 6:56 PM CDT
Nautical Twilight 6:16 AM CDT 7:28 PM CDT
Astronomical Twilight 5:44 AM CDT 8:00 PM CDT
Moon 12:34 AM CDT (10/13) 3:18 PM CDT (10/13)
Length of Visible Light 12h 06m
Length of Day
11h 10m
Last Quarter, 37% of the Moon is Illuminated
Oct 13
Last Quarter
Oct 19
New
Oct 27
First Quarter
Nov 4
Full
Nov 10
Last Quarter

Hourly Weather History & Observations

Time (CDT) Temp. Dew Point Humidity Pressure Visibility Wind Dir Wind Speed Gust Speed Precip Events Conditions
12:21 AM 55.0 °F 52.0 °F 89% 30.06 in 10.0 mi South 8.1 mph - N/A   Overcast
12:52 AM 54.0 °F 52.0 °F 93% 30.07 in 10.0 mi South 5.8 mph - N/A   Overcast
1:52 AM 54.0 °F 52.0 °F 93% 30.07 in 10.0 mi South 3.5 mph - N/A   Overcast
2:52 AM 54.0 °F 52.0 °F 93% 30.07 in 10.0 mi SE 4.6 mph - N/A   Overcast
3:52 AM 53.1 °F 52.0 °F 96% 30.06 in 10.0 mi ESE 4.6 mph - N/A   Overcast
3:59 AM 53.1 °F 52.0 °F 96% 30.06 in 10.0 mi East 4.6 mph - N/A   Overcast
4:28 AM 53.1 °F 52.0 °F 96% 30.06 in 9.0 mi East 4.6 mph - N/A   Overcast
4:52 AM 52.0 °F 52.0 °F 100% 30.07 in 10.0 mi East 4.6 mph - N/A   Overcast
5:06 AM 51.1 °F 51.1 °F 100% 30.07 in 9.0 mi East 5.8 mph - N/A   Mostly Cloudy
5:52 AM 48.9 °F 48.0 °F 97% 30.09 in 6.0 mi ESE 5.8 mph - N/A   Clear
6:52 AM 50.0 °F 50.0 °F 100% 30.09 in 4.0 mi East 5.8 mph - N/A   Scattered Clouds
7:20 AM 50.0 °F 48.9 °F 96% 30.07 in 2.0 mi East 6.9 mph - N/A   Clear
7:22 AM 50.0 °F 48.9 °F 96% 30.07 in 4.0 mi East 6.9 mph - N/A   Clear
7:52 AM 50.0 °F 50.0 °F 100% 30.09 in 4.0 mi ESE 4.6 mph - N/A   Clear
7:59 AM 51.1 °F 51.1 °F 100% 30.08 in 2.0 mi SE 4.6 mph - N/A   Clear
8:00 AM 51.1 °F 51.1 °F 100% 30.08 in 4.0 mi SE 4.6 mph - N/A   Clear
8:52 AM 55.0 °F 53.1 °F 93% 30.09 in 4.0 mi SE 8.1 mph - N/A   Clear
9:01 AM 55.0 °F 54.0 °F 96% 30.09 in 4.0 mi SE 5.8 mph - N/A   Clear
9:52 AM 57.9 °F 54.0 °F 87% 30.08 in 6.0 mi ESE 6.9 mph - N/A   Mostly Cloudy
10:52 AM 62.1 °F 55.0 °F 78% 30.07 in 8.0 mi ENE 4.6 mph - N/A   Mostly Cloudy
11:52 AM 62.1 °F 55.0 °F 78% 30.07 in 9.0 mi East 6.9 mph - N/A   Overcast
12:47 PM 64.4 °F 55.4 °F 73% 30.06 in 10.0 mi NNE 5.8 mph - N/A   Overcast
12:52 PM 64.0 °F 55.0 °F 73% 30.07 in 10.0 mi North 6.9 mph - N/A   Overcast
1:52 PM 60.1 °F 55.0 °F 83% 30.05 in 6.0 mi North 16.1 mph - N/A   Haze
2:49 PM 64.4 °F 55.4 °F 73% 30.01 in 10.0 mi NE 16.1 mph - N/A   Mostly Cloudy
2:52 PM 64.0 °F 55.9 °F 75% 30.01 in 10.0 mi NE 16.1 mph - N/A   Mostly Cloudy
3:14 PM 63.0 °F 55.9 °F 78% 30.02 in 10.0 mi NE 11.5 mph 20.7 mph N/A   Overcast
3:52 PM 62.1 °F 55.0 °F 78% 30.04 in 10.0 mi NNE 13.8 mph - N/A   Overcast
4:52 PM 61.0 °F 55.9 °F 83% 30.02 in 10.0 mi NE 11.5 mph - N/A   Overcast
4:55 PM 61.0 °F 55.9 °F 83% 30.02 in 10.0 mi NE 11.5 mph - N/A   Overcast
5:52 PM 61.0 °F 55.9 °F 83% 30.04 in 10.0 mi NE 10.4 mph - N/A   Overcast
6:52 PM 59.0 °F 57.0 °F 93% 30.06 in 6.0 mi NE 12.7 mph - 0.02 in Rain Light Rain
7:52 PM 57.9 °F 57.0 °F 97% 30.06 in 7.0 mi ENE 15.0 mph - 0.00 in   Overcast
8:52 PM 57.9 °F 57.0 °F 97% 30.05 in 10.0 mi East 11.5 mph - N/A   Overcast
9:52 PM 57.9 °F 55.9 °F 93% 30.05 in 10.0 mi ENE 9.2 mph - N/A   Scattered Clouds
10:52 PM 59.0 °F 57.0 °F 93% 30.06 in 10.0 mi ENE 9.2 mph - N/A   Overcast
11:52 PM 59.0 °F 57.0 °F 93% 30.04 in 10.0 mi ENE 11.5 mph - N/A   Mostly Cloudy